Location: Unspecified
(0.0000°N, 0.0000°E)
Time: 12:50:20
(UTC+00:00)

S-56A Canister/Altair - All Passes

Search period start: 29 June 2016 00:00
Search period end: 09 July 2016 00:00
Orbit: 639 x 2496 km, 38.9° (Epoch: 27 June)

Date Brightness Start Highest point End Pass type
(mag) Time Alt. Az. Time Alt. Az. Time Alt. Az.
29 Jun - 01:08:59 10° NNW 01:18:21 19° NNE 01:26:41 10° ENE visible
29 Jun - 03:13:01 10° NW 03:26:39 56° NE 03:36:19 10° ESE visible
29 Jun - 05:20:57 10° WNW 05:32:04 43° SW 05:39:44 10° SSE visible
29 Jun - 15:58:57 10° SW 16:04:49 81° SE 16:13:46 10° NE daylight
29 Jun - 18:04:21 10° W 18:10:29 24° NNW 18:18:41 10° NNE daylight
30 Jun - 00:36:15 10° N 00:44:52 17° NNE 00:52:47 10° ENE visible
30 Jun - 02:39:47 10° NNW 02:53:33 50° NE 03:03:43 10° ESE visible
30 Jun - 04:47:09 10° WNW 04:59:25 52° SW 05:07:47 10° SSE visible
30 Jun - 15:27:00 10° SW 15:32:28 66° SE 15:40:34 10° NE daylight
30 Jun - 17:31:44 10° W 17:37:39 26° NNW 17:45:45 10° NNE daylight
01 Jul - 00:03:42 10° N 00:11:19 15° NNE 00:18:33 10° ENE visible
01 Jul - 02:06:37 10° NNW 02:20:22 45° NE 02:30:59 10° ESE visible
01 Jul - 04:13:27 10° WNW 04:26:40 62° SW 04:35:45 10° SE visible
01 Jul - 06:27:59 10° WSW 06:31:22 12° SW 06:34:24 10° SSW daylight
01 Jul - 14:55:07 10° SSW 15:00:12 51° SE 15:07:24 10° ENE daylight
01 Jul - 16:59:15 10° W 17:04:55 29° NNW 17:12:49 10° NNE daylight
01 Jul - 23:31:26 10° N 23:37:42 13° NNE 23:43:52 10° NE visible
02 Jul - 01:33:32 10° NNW 01:47:06 40° NE 01:58:06 10° ESE visible
02 Jul - 03:39:49 10° NW 03:53:49 72° SW 04:03:35 10° SE visible
02 Jul - 05:52:28 10° W 05:58:43 16° SW 06:03:52 10° S daylight
02 Jul - 14:23:18 10° SSW 14:27:59 38° SE 14:34:14 10° ENE daylight
02 Jul - 16:26:50 10° W 16:32:17 32° NNW 16:39:57 10° NNE daylight
02 Jul - 22:59:41 10° N 23:04:04 12° NNE 23:08:26 10° NE visible
03 Jul - 01:00:32 10° NNW 01:13:47 36° NE 01:25:02 10° E visible
03 Jul - 03:06:17 10° NW 03:20:52 82° SW 03:31:20 10° SE visible
03 Jul - 05:17:40 10° W 05:26:01 21° SW 05:32:37 10° S visible
03 Jul - 13:51:36 10° SSW 13:55:47 29° SE 14:01:02 10° ENE daylight
03 Jul - 15:54:30 10° WSW 15:59:43 37° NW 16:07:07 10° NNE daylight
04 Jul - 00:27:39 10° NNW 00:40:24 32° NE 00:51:46 10° E visible
04 Jul - 02:32:51 10° NW 02:47:49 89° NE 02:58:57 10° SE visible
04 Jul - 04:43:11 10° W 04:53:17 27° SW 05:01:01 10° S visible
04 Jul - 13:20:01 10° S 13:23:35 21° SE 13:27:46 10° E daylight
04 Jul - 15:22:14 10° WSW 15:27:16 43° NW 15:34:19 10° NNE daylight
04 Jul - 23:54:53 10° NNW 00:07:00 29° NE 00:18:16 10° E visible
05 Jul - 01:59:31 10° NW 02:14:41 80° NE 02:26:26 10° SE visible
05 Jul - 04:08:56 10° WNW 04:20:29 33° SW 04:29:14 10° SSE visible
05 Jul - 12:48:37 10° S 12:51:21 15° SE 12:54:21 10° E daylight
05 Jul - 14:50:02 10° WSW 14:54:53 51° NW 15:01:35 10° NE daylight
05 Jul - 17:00:06 10° NNW 17:00:51 10° NNW 17:01:37 10° NNW daylight
05 Jul - 23:22:15 10° NNW 23:33:34 26° NE 23:44:31 10° E visible
06 Jul - 01:26:17 10° NW 01:41:28 72° NE 01:53:48 10° ESE visible
06 Jul - 03:34:51 10° WNW 03:47:35 39° SW 03:57:17 10° SSE visible
06 Jul - 12:17:50 10° SSE 12:19:05 11° SE 12:20:22 10° ESE daylight
06 Jul - 14:17:52 10° WSW 14:22:34 64° NW 14:28:53 10° NE daylight
06 Jul - 16:26:17 10° NW 16:28:04 11° NNW 16:30:01 10° N daylight
06 Jul - 22:49:47 10° NNW 23:00:06 22° NE 23:10:30 10° E visible
07 Jul - 00:53:11 10° NW 01:08:11 64° NE 01:21:01 10° ESE visible
07 Jul - 03:00:56 10° WNW 03:14:37 46° SW 03:25:11 10° SSE visible
07 Jul - 13:45:45 10° SW 13:50:20 82° NW 13:56:14 10° NE daylight
07 Jul - 15:53:03 10° NW 15:55:23 12° NNW 15:57:59 10° N daylight
07 Jul - 22:17:30 10° N 22:26:39 19° NNE 22:36:08 10° ENE visible
08 Jul - 00:20:11 10° NW 00:34:51 58° NE 00:48:05 10° ESE visible
08 Jul - 02:27:11 10° WNW 02:41:34 53° SW 02:52:58 10° SSE visible
08 Jul - 04:42:55 10° WSW 04:47:48 13° SW 04:52:10 10° SSW visible
08 Jul - 13:13:40 10° SW 13:18:09 77° SE 13:23:36 10° NE daylight
08 Jul - 15:20:04 10° WNW 15:22:46 14° NNW 15:25:52 10° N daylight
08 Jul - 21:45:30 10° N 21:53:13 16° NNE 22:01:21 10° ENE visible
